Location: Wapato
(46.4478°N, 120.4212°W)
Time: 13:00:39
(UTC+00:00)

Transit 2A - Visible Passes

Search period start: 13 May 2026 00:00
Search period end: 23 May 2026 00:00
Orbit: 594 x 950 km, 66.7° (Epoch: 13 May)

Date Brightness Start Highest point End Pass type
(mag) Time Alt. Az. Time Alt. Az. Time Alt. Az.
13 May 8.4 06:51:15 10° N 06:54:18 15° NNE 06:57:12 10° ENE visible
13 May 6.1 08:33:27 10° NNW 08:38:29 62° NE 08:39:36 47° ESE visible
13 May 7.5 10:17:39 10° WNW 10:19:53 17° W 10:19:53 17° W visible
14 May 8.5 06:15:14 10° N 06:17:25 12° NNE 06:19:32 10° NE visible
14 May 6.8 07:57:06 10° NNW 08:01:57 43° NE 08:03:33 32° E visible
14 May 7.0 09:40:36 10° NW 09:43:50 26° W 09:43:50 26° W visible
15 May 8.8 05:39:38 10° N 05:40:28 10° NNE 05:41:18 10° NNE visible
15 May 7.3 07:20:48 10° NNW 07:25:19 31° NE 07:27:36 21° E visible
15 May 6.3 09:03:50 10° NW 09:07:54 40° W 09:07:54 40° W visible
16 May 7.8 06:44:34 10° NNW 06:48:37 23° NE 06:51:42 13° E visible
16 May 5.7 08:27:15 10° NW 08:32:00 66° WSW 08:32:00 66° WSW visible
17 May 8.2 06:08:23 10° N 06:11:51 18° NNE 06:15:06 10° ENE visible
17 May 5.6 07:50:46 10° NNW 07:55:47 81° ENE 07:56:09 74° ESE visible
17 May 8.0 09:35:48 10° WNW 09:36:27 11° W 09:36:27 11° W visible
18 May 8.3 05:32:18 10° N 05:35:00 14° NNE 05:37:35 10° ENE visible
18 May 6.2 07:14:22 10° NNW 07:19:18 54° NE 07:20:21 44° E visible
18 May 7.5 08:58:17 10° WNW 09:00:40 19° W 09:00:40 19° W visible
19 May 8.4 04:56:24 10° N 04:58:06 11° NNE 04:59:45 10° NE visible
19 May 6.9 06:38:02 10° NNW 06:42:43 38° NE 06:44:36 27° E visible
19 May 6.9 08:21:21 10° NW 08:24:54 30° W 08:24:54 30° W visible
20 May 7.4 06:01:46 10° NNW 06:06:05 27° NE 06:08:53 16° E visible
20 May 6.1 07:44:39 10° NW 07:49:11 49° WSW 07:49:11 49° WSW visible
21 May 7.8 05:25:33 10° NNW 05:29:21 21° NE 05:32:54 10° E visible
21 May 5.5 07:08:06 10° NW 07:13:01 77° WSW 07:13:30 68° S visible
22 May 8.1 04:49:25 10° N 04:52:33 16° NNE 04:55:31 10° ENE visible
22 May 5.8 06:31:39 10° NNW 06:36:36 71° NE 06:37:51 46° ESE visible
22 May 7.8 08:16:13 10° WNW 08:18:10 14° W 08:18:10 14° W visible
